TimeMDT,TemperatureF,Dew PointF,Humidity,Sea Level PressureIn,VisibilityMPH,Wind Direction,Wind SpeedMPH,Gust SpeedMPH,PrecipitationIn,Events,Conditions,WindDirDegrees,DateUTC
12:53 AM,60.1,52.0,75,29.77,10.0,ESE,3.5,-,N/A,,Clear,120,2013-06-24 06:53:00
1:53 AM,57.9,53.1,84,29.74,10.0,East,3.5,-,N/A,,Clear,100,2013-06-24 07:53:00
2:53 AM,54.0,51.1,90,29.73,10.0,Calm,Calm,-,N/A,,Clear,0,2013-06-24 08:53:00
3:53 AM,51.1,48.9,92,29.73,10.0,Calm,Calm,-,N/A,,Clear,0,2013-06-24 09:53:00
4:53 AM,52.0,50.0,93,29.71,10.0,Calm,Calm,-,N/A,,Clear,0,2013-06-24 10:53:00
5:53 AM,51.1,48.9,92,29.70,9.0,Calm,Calm,-,N/A,,Clear,0,2013-06-24 11:53:00
6:53 AM,55.0,51.1,86,29.69,10.0,Calm,Calm,-,N/A,,Clear,0,2013-06-24 12:53:00
7:53 AM,62.1,52.0,70,29.66,10.0,WSW,3.5,-,N/A,,Clear,250,2013-06-24 13:53:00
8:53 AM,68.0,46.9,47,29.66,10.0,SW,8.1,-,N/A,,Clear,230,2013-06-24 14:53:00
9:53 AM,73.0,48.9,42,29.64,10.0,West,8.1,-,N/A,,Clear,270,2013-06-24 15:53:00
10:53 AM,79.0,41.0,26,29.62,10.0,Calm,Calm,-,N/A,,Clear,0,2013-06-24 16:53:00
11:53 AM,82.0,34.0,18,29.62,10.0,SW,11.5,17.3,N/A,,Clear,230,2013-06-24 17:53:00
12:53 PM,78.1,53.1,42,29.63,10.0,ESE,10.4,24.2,N/A,,Scattered Clouds,110,2013-06-24 18:53:00
1:53 PM,80.1,50.0,35,29.61,10.0,SE,9.2,19.6,N/A,,Clear,130,2013-06-24 19:53:00
2:53 PM,80.1,46.9,31,29.61,10.0,ESE,11.5,19.6,N/A,,Clear,120,2013-06-24 20:53:00
3:53 PM,73.0,54.0,51,29.66,10.0,ESE,10.4,-,N/A,,Clear,120,2013-06-24 21:53:00
4:53 PM,71.1,36.0,28,29.67,10.0,South,6.9,17.3,N/A,,Clear,190,2013-06-24 22:53:00
5:53 PM,71.1,35.1,27,29.72,10.0,WSW,15.0,23.0,0.00,,Mostly Cloudy,240,2013-06-24 23:53:00
6:53 PM,70.0,39.9,33,29.65,10.0,East,3.5,-,0.00,,Clear,90,2013-06-25 00:53:00
7:53 PM,68.0,37.9,33,29.65,10.0,ESE,9.2,17.3,N/A,,Clear,110,2013-06-25 01:53:00
8:53 PM,68.0,36.0,31,29.64,10.0,Variable,5.8,-,N/A,,Clear,0,2013-06-25 02:53:00
9:53 PM,66.0,37.9,36,29.67,10.0,Variable,5.8,-,N/A,,Clear,0,2013-06-25 03:53:00
10:53 PM,64.9,39.9,40,29.65,10.0,Calm,Calm,-,N/A,,Clear,0,2013-06-25 04:53:00
11:53 PM,63.0,37.9,40,29.63,10.0,WSW,3.5,-,N/A,,Clear,240,2013-06-25 05:53:00